Flag for Germany Weather past 2 weeks in Bad Neuenahr-Ahrweiler, Rhineland-Palatinate, Germany

Now
37 °F

Sunny.


Feels Like: 37 °F
Forecast: 32 / 60 °F
Wind: 2 mph from Northeast

Location: Bonn-Hangelar

Current Time: Apr 18, 2015 at 8:07:37 AM

Latest Report: Apr 18, 2015 at 7:00 AM


Visibility: 13 mi

Pressure: 30.30 "Hg

Humidity: 88%

Dew point: 34 °F

Location of Bad Neuenahr-AhrweilerLocation

Historic Weather in Bad Neuenahr-Ahrweiler — Graph

°F

Bad Neuenahr-Ahrweiler temperature yesterday

Maximum temperature yesterday: 55 °F (at 3:00 PM)
Minimum temperature yesterday: 42 °F (at 8:00 AM)
Average temperature yesterday: 48 °F

Past Weeks' High & Low Weather Summary

 TemperatureHumidityPressure
High72 °F (Apr 15, 5:00 PM)98% (Apr 4, 12:00 PM)30.65 "Hg (Apr 4, 12:00 PM)
Low31 °F (Apr 3, 7:00 AM)31% (Apr 10, 3:00 PM)29.93 "Hg (Apr 16, 6:00 PM)
Average49 °F70%30.26 "Hg
* Reported Apr 3 7:00 AM — Apr 18 7:00 AM, Bad Neuenahr-Ahrweiler, Weather by CustomWeather, © 2015

Note: Actual official high and low records may vary slightly from our data, if they occured in-between our weather recording intervals... More about our weather records

Advertising

Bad Neuenahr-Ahrweiler weather history for previous 24 hours

 ConditionsComfort  
Time TempWeatherWind HumidityBarometerVisibility
7:00 AM
Sat, Apr 18
37 °FSunny.2 mph88%30.30 "Hg12 mi
6:00 AM36 °FClear.2 mph87%30.29 "Hg13 mi
5:00 AM36 °FClear.1 mph85%30.29 "Hg14 mi
4:00 AM37 °FClear.2 mph85%30.29 "Hg17 mi
3:00 AM39 °FClear.3 mph79%30.27 "Hg19 mi
2:00 AM41 °FClear.5 mph75%30.26 "Hg25 mi
1:00 AM42 °FClear.3 mph71%30.24 "Hg25 mi
12:00 AM43 °FClear.5 mph67%30.22 "Hg28 mi
11:00 PM
Fri, Apr 17
45 °FPassing clouds.5 mph63%30.19 "Hg31 mi
10:00 PM46 °FOvercast.3 mph59%30.16 "Hg37 mi
9:00 PM48 °FOvercast.5 mph54%30.14 "Hg37 mi
8:00 PM50 °FPassing clouds.5 mph55%30.11 "Hg1 mi
7:00 PM50 °FPartly sunny.6 mph52%30.09 "Hg34 mi
6:00 PM51 °FOvercast.6 mph54%30.09 "Hg31 mi
5:00 PM51 °FOvercast.7 mph59%30.09 "Hg22 mi
4:00 PM53 °FOvercast.7 mph58%30.07 "Hg17 mi
3:00 PM55 °FOvercast.6 mph56%30.06 "Hg17 mi
2:00 PM52 °FOvercast.6 mph49%30.06 "Hg28 mi
1:00 PM51 °FOvercast.7 mph51%30.06 "Hg16 mi
12:00 PM50 °FOvercast.6 mph55%30.05 "Hg22 mi
11:00 AM48 °FPassing clouds.7 mph60%30.04 "Hg12 mi
10:00 AM45 °FOvercast.6 mph75%30.04 "Hg18 mi
9:00 AM43 °FOvercast.5 mph77%30.03 "Hg19 mi
8:00 AM42 °FOvercast.7 mph77%30.01 "Hg19 mi
Weather by CustomWeather, © 2015

See weather overviewHow to use our weather pages